OBJECT YM, 69797

Orbit data source: Space-Track

You're viewing an uncataloged RSO

Recently launched and/or uncataloged RSOs may have evolving metadata. Metadata may include the following, but is not limited to: Owner, Manufacturer, Bus, Motor, and Mission.

OBJECT YM, 69797 is a satellite in LEO that was delivered to and deployed from the ISS. Unknown objects in Earth's orbit typically refer to objects detected orbiting the Earth but have not yet been identified or cataloged. These objects could be anything from previously untracked satellites, spent rocket stages, debris from satellite collisions, or even natural meteoroids temporarily captured by Earth's gravity.

Loading next visibility...
Identifier
69797, 1998-067YM
Orbit
LEO
Country
Flag of TBDTBD
Related business
Manufacturer
COL
Mission
Operational spacecraft
Bus & Motor
CUBESAT 1U, Unknown motor
Mass
1 kg wet, 1 kg dry
Launch date (UTC)
1998-11-20 (28 years ago)
Launch vehicle
FALCON 9
Launch site
Tyuratam Missile And Space Complex (TTMTR)
Object type
Unknown
Shape & HBR
BOX, 0.1 m
Radar Cross Section
Medium (>0.1 m² and <1 m²)

Expand to show TLE details & history
Last TLE update: 10 hours ago

TLE from 10 hours ago
0 OBJECT YM
1 69797U 98067YM  26253.97034648  .00040961  00000-0  60007-3 0  9993
2 69797  51.6284 233.8967 0010473 130.1846 230.0063 15.55090747 10954
Epoch: 2026-09-10T23:17Z
TLE epoch observation values (Epoch: 2026-09-10T23:17:17.935Z)
Latitude
-0.00007°
Longitude
-105.4285°
Altitude
407.198 km
Speed
7.665 km/s
True Right ascension
15h 35m 35s
True Declination
0° 00' 00"
Sunlit
Object was in daylight at epoch
Visualization orbit readout
Latitude
Unknown
Longitude
Unknown
Altitude
Unknown
Speed
Unknown
Apparent Right ascension
Unknown
Apparent Declination
Unknown
Sunlit
N/A
Visualization observer readout
Local Sidereal Time
01:48:34
Azimuth
Unknown
Elevation
Unknown
Doppler factor
Unknown
Orbital elements
Apogee altitude
409.501 km
Perigee altitude
395.299 km
Semi-major axis
6,780.537 km
Eccentricity
0.00105
Inclination
51.6284°
RAAN
233.8967°
Arg. of periapsis
130.1846°
True anomaly
229.91443°
Mean anomaly
230.0063°
Eccentric anomaly
229.96036°
Mean motion
3.88729 °/min
Orbital period
92.61 mins
BSTAR
0.00060007
Loading maneuver chart data...
Computing Atmospheric mass density...
Loading historical data...
Loading historical data...
Loading historical data...
Loading historical data...
Loading historical data...
Loading historical data...
Loading historical data...

Documentation

Showing up to 5 results
|